Regional Weather Roundup
Issued by NWS

Home | Current Version | Previous Version | Text Only | Print | Product List | Glossary Off
Versions: 1 2 3 4 5 6 7 8 9 10 11 12 13 14 15 16 17 18 19 20 21 22 23 24 25 26 27 28 29 30 31 32 33 34 35 36 37 38 39 40 41 42 43 44 45 46 47 48 49 50

000
ASUS43 KMKX 231021
RWRWI

WISCONSIN REGIONAL WEATHER ROUNDUP
NATIONAL WEATHER SERVICE MILWAUKEE/SULLIVAN WI
400 AM CST SUN NOV 23 2014

NOTE: "FAIR" INDICATES FEW OR NO CLOUDS BELOW 12,000 FEET WITH NO
SIGNIFICANT WEATHER AND/OR OBSTRUCTIONS TO VISIBILITY.

WIZ001-002-006>008-014>016-023>028-231100-
NORTHWEST WISCONSIN

CITY           SKY/WX    TMP DP  RH WIND       PRES   REMARKS
SUPERIOR ARPT  FOG       36  36 100 NE5       29.45S VSB 1/2 WCI  32
ASHLAND        CLOUDY    35  33  92 CALM      29.48F
HAYWARD        FOG       39  38  96 S7        29.46F VSB 3/4 WCI  34
SIREN          CLOUDY    43  42  98 S5        29.44F FOG
CUMBERLAND     FOG       37  37 100 S8        29.46F VSB<1/4 WCI  31
RICE LAKE      FOG       38  38  98 SE7       29.49F VSB<1/4 WCI  33
CHETEK         FOG       39  39 100 CALM      29.49S VSB 1/4
LADYSMITH      FOG       43  42  97 S9        29.51S VSB 1/4
EAU CLAIRE     CLOUDY    44  43  96 S15       29.50S FOG
MENOMONIE      CLOUDY    46  45  99 S10       29.48F FOG
NEW RICHMOND   CLOUDY    44  44 100 S8        29.45F FOG
OSCEOLA        FOG       44  44 100 S7        29.47S VSB 1/2
$$

WIZ003>005-009-010-017-018-231100-
NORTH CENTRAL WISCONSIN

CITY           SKY/WX    TMP DP  RH WIND       PRES   REMARKS
MANITOWISH WTR FOG       38  38 100 S9        29.51F VSB 1/2 WCI  32
ARBOR VITAE    DRZL/FOG  42  40  95 S7        29.52F VSB 1/2
WOODRUFF       DRZL/FOG  42  40  95 S7        29.52F VSB 1/2
RHINELANDER    FOG       41  41 100 S7        29.55F VSB 1/2
EAGLE RIVER    DRZL/FOG  38  38 100 S7        29.53F VSB 1/2 WCI  33
LAND O LAKES   FOG       39  39 100 S6        29.54F VSB 1/2
PHILLIPS       FOG       41  41 100 S12       29.50F VSB 1/4
TOMAHAWK       FOG       39  38  97 CALM      29.55F VSB 1/4
MEDFORD        FOG       39  39 100 S10       29.54F VSB 1/4 WCI  33
MERRILL        FOG       40  40 100 S3        29.56F VSB 1/2
$$

WIZ029-030-035-036-043>047-231100-
CENTRAL WISCONSIN

CITY           SKY/WX    TMP DP  RH WIND       PRES   REMARKS
WAUSAU         LGT RAIN  40  40 100 SE9       29.56F VSB 1/4 WCI  34
MOSINEE        LGT RAIN  43  43 100 S13       29.59F VSB<1/4
MARSHFIELD     FOG       45  44  97 S6        29.57F VSB 1/4
STEVENS POINT  CLOUDY    44  44 100 S9        29.60F FOG
WAUPACA        CLOUDY    49  48  95 S7        29.64S FOG
WAUTOMA        CLOUDY    49  49 100 S8        29.64F FOG
WISC RAPIDS    CLOUDY    49  47  93 S10       29.61F FOG
CAMP DOUGLAS   CLOUDY    50  50 100 VRB7      29.60S
$$

WIZ011>013-019>022-031-037>040-048>050-231100-
NORTHEAST WISCONSIN

CITY           SKY/WX    TMP DP  RH WIND       PRES   REMARKS
ANTIGO         FOG       37  37 100 SE15      29.60F VSB 1/4 WCI  27
SHAWANO        CLOUDY    48  47  95 S6        29.63F FOG
OCONTO         CLOUDY    41  41 100 S6        29.65F
STURGEON BAY   CLOUDY    45  43  93 S9        29.68S
GREEN BAY      CLOUDY    48  46  93 S8        29.66F FOG
MANITOWOC      CLOUDY    45  44  97 S14       29.69F FOG
APPLETON       CLOUDY    45  45 100 S12       29.66S FOG
CLINTONVILLE   CLOUDY    45  45 100 S9        29.63F FOG
OSHKOSH        CLOUDY    48  45  89 S13       29.66F FOG
$$

WIZ032>034-041-042-053>061-231100-
SOUTHWEST WISCONSIN

CITY           SKY/WX    TMP DP  RH WIND       PRES   REMARKS
LA CROSSE      CLOUDY    51  49  92 S12       29.56F
SPARTA         CLOUDY    51  49  92 S12G17    29.58F
VIROQUA        CLOUDY    48  48 100 S13       29.59F
BOSCOBEL       CLOUDY    50  48  93 S3        29.62F FOG
PRAIRIE DU CHI CLOUDY    50  48  92 SE6       29.61F FOG
PLATTEVILLE    CLOUDY    49  48  97 S12       29.66F
$$

WIZ056-057-062-063-064-067-068-231100-
SOUTH CENTRAL WISCONSIN

CITY           SKY/WX    TMP DP  RH WIND       PRES   REMARKS
REEDSBURG      CLOUDY    48  47  97 S10       29.63F FOG
BARABOO/DELLS  CLOUDY    48  46  91 S10G17    29.63S FOG
LONE ROCK      CLOUDY    52  47  83 S3        29.65F HAZE
MINERAL POINT  LGT RAIN  48  46  93 S9        29.65F VSB 1/2
MADISON        CLOUDY    48  46  93 S7        29.68F FOG
MIDDLETON      CLOUDY    49  49  98 S10       29.67F
WATERTOWN      CLOUDY    47  47 100 S12G20    29.69F FOG
MONROE         CLOUDY    46  46 100 S13       29.67F FOG
JANESVILLE     CLOUDY    50  46  87 S12       29.70F FOG
$$

WIZ051-052-058>065-066-070>072-231100-
SOUTHEAST WISCONSIN

CITY           SKY/WX    TMP DP  RH WIND       PRES   REMARKS
MILWAUKEE      CLOUDY    50  46  86 SW12G21   29.72F FOG
WAUKESHA       CLOUDY    46  45  93 S9        29.73S FOG
MILWAUKEE/TIMM CLOUDY    48  45  87 SW10G20   29.72F FOG
RACINE         CLOUDY    50  47  89 SW12      29.75F FOG
BURLINGTON     CLOUDY    47  47  98 S14G20    29.72F FOG
KENOSHA        CLOUDY    50  48  93 S13       29.74F FOG
FOND DU LAC    CLOUDY    48  45  89 S14G22    29.66F FOG
SHEBOYGAN      CLOUDY    46  44  93 S10       29.69F FOG
WEST BEND      CLOUDY    48  45  87 S16G24    29.69F FOG
JUNEAU         FOG       47  46  99 S16G23    29.70S VSB 3/4
$$

LSZ147-162-231100-
LAKE SUPERIOR

STATION/POSITION TIME  TEMP    WIND        PRES    WAVE
                       AIR SEA DIR/SP/G            HT/PER
                 (UTC) (F)     (DEG/KT/KT) (MB)    (FT/S)
DEVILS ISLAND    1000   38     130/ 13/ 15  998.4F
PORT WING        0940   40     140/  3/  9  997.6F
SAXON HARBOR     0940   44     180/  2/  7  998.3F
$$

LMZ867-665-643>646-231100-
LAKE MICHIGAN

STATION/POSITION TIME  TEMP    WIND        PRES    WAVE
                       AIR SEA DIR/SP/G            HT/PER
                 (UTC) (F)     (DEG/KT/KT) (MB)    (FT/S)
CHAMBERS ISLAND  0900   44     140/  5/ 10 1005.4F
N MID LAKE BUOY  0950   44 42  190/ 16/ 17 1006.0F   3/ 6
NORTHPORT PIER   1002   44     150/  7/ 12 1005.4F
KEWAUNEE LAKESHO 1000   40     170/  9/ 11 1004.1F
SHEBOYGAN LAKESH 1000   44 37  170/ 13/ 14 1006.1F
PORT WASHINGTON  0900   45     210/  7/ 10 1007.1F
ATWATER BUOY     1000   50      30/  2/  6 1007.9F
MILWAUKEE LAKESH 1000   50     220/ 16/ 19   N/A
S MID LAKE BUOY  0950   45 43  170/ 16/ 17 1008.7F   3/ 5
KENOSHA   LAKESH 1000   51     200/ 11/ 16 1007.5F
$$

TC  - TEMPERATURE IN CELSIUS
VSB - VISIBILITY IN STATUTE MILES
WCI - WIND CHILL INDEX
HX  - HEAT INDEX



USA.gov is the U.S. government's official web portal to all federal, state and local government web resources and services.